Location: Bright Skies Observatory
(38.9689°N, 77.0681°W)
Time: 05:27:51
(UTC-04:00)

Daily predictions for brighter satellites

Satellite Brightness Start Highest point End
(mag) Time Altitude Azimuth Time Altitude Azimuth Time Altitude Azimuth
ATLAS 3B R/B 4.2 00:07:26 10° NW 00:11:07 23° W 00:11:07 23° W
Cosmos 2219 Rocket 3.6 00:14:24 34° NNW 00:14:24 34° NNW 00:18:20 10° N
SL-16 R/B 4.3 00:21:37 19° NE 00:21:37 19° NE 00:23:12 10° NNE
CZ-2C R/B 4.4 00:16:56 10° NNE 00:19:21 28° NNE 00:19:21 28° NNE
NOSS 3-2 (C) 4.4 00:20:25 10° NW 00:26:27 57° WNW 00:26:27 57° WNW
Cosmos 2333 Rocket 3.8 00:32:48 30° NNW 00:32:48 30° NNW 00:36:28 10° N
Cosmos 2237 Rocket 4.0 00:57:08 27° NNW 00:57:08 27° NNW 01:00:23 10° N
Mayak 2.0 00:52:14 10° NNE 00:52:18 10° NNE 00:52:18 10° NNE
Cosmos 2369 Rocket 4.4 00:56:32 10° N 00:59:57 18° NE 00:59:57 18° NE
CENTAUR R/B 3.4 00:58:09 10° NNW 01:04:37 63° NNW 01:04:37 63° NNW
USA 215 4.0 01:13:10 49° N 01:13:10 49° N 01:18:19 10° NW
ATLAS CENTAUR R/B 4.4 01:29:58 10° NW 01:35:02 30° NNW 01:35:02 30° NNW
SL-16 R/B 4.2 02:03:29 21° NW 02:03:29 21° NW 02:06:34 10° N
SL-16 R/B 3.9 02:30:31 30° E 02:31:57 33° ENE 02:37:22 10° N
Cosmos 1943 Rocket 3.4 02:27:41 10° NNW 02:31:11 37° N 02:31:11 37° N
Resurs 1-4 Rocket 3.8 02:34:54 10° NE 02:38:22 26° ENE 02:38:22 26° ENE
Cosmos 2369 Rocket 3.9 02:39:19 10° NNW 02:41:41 26° NNW 02:41:41 26° NNW
CZ-3A R/B 3.7 02:37:52 10° NW 02:47:53 63° NE 02:53:10 10° ESE
CZ-2D R/B 3.5 02:44:53 10° NNE 02:48:55 32° ENE 02:48:55 32° ENE
Cosmos 1943 4.3 02:56:08 37° NNW 02:56:08 37° NNW 03:00:04 10° N
ARIANE 5 R/B 3.4 03:07:37 10° NNE 03:12:11 45° E 03:12:11 45° E
BREEZE-M DEB (TANK) 4.2 03:13:14 44° NW 03:14:34 52° N 03:31:29 10° ENE
Cosmos 2239 Rocket 4.5 03:19:57 75° NW 03:19:57 75° NW 03:25:53 10° N
ADEOS Rocket 3.4 03:17:29 10° N 03:21:45 45° NW 03:21:45 45° NW
Cosmos 1726 4.4 03:29:17 21° ENE 03:29:17 21° ENE 03:31:30 10° NE
Cosmos 1535 Rocket 4.5 03:28:55 73° WNW 03:28:55 73° WNW 03:35:12 10° N
IRS-1D 3.6 03:31:50 10° NNE 03:36:35 76° NNE 03:36:35 76° NNE
Cosmos 2221 3.4 03:41:00 46° N 03:41:00 46° N 03:44:06 10° N
Cosmos 1805 Rocket 4.2 03:38:12 10° N 03:42:20 53° ENE 03:42:20 53° ENE
ADEOS 3.5 03:39:55 10° NNE 03:45:10 81° ESE 03:45:16 80° SE
Spot 4 Rocket 4.1 03:40:21 10° N 03:45:08 70° NW 03:45:08 70° NW
COSMOS 2406 3.1 03:47:05 76° SSE 03:47:28 82° ESE 03:53:11 10° NNE
Cosmos 2285 Rocket 4.1 03:46:52 55° SSE 03:48:15 72° ESE 03:54:37 10° NNE
Cosmos 372 Rocket 3.9 03:46:04 10° NNW 03:51:00 80° NW 03:51:00 80° NW
Cosmos 2098 Rocket 4.0 03:52:13 53° WNW 03:52:13 53° WNW 03:57:08 10° N
Cosmos 540 Rocket 4.0 03:58:15 44° NW 03:58:15 44° NW 04:02:47 10° N
Okean O Rocket 4.4 03:57:21 10° ENE 03:59:22 13° E 04:01:22 10° ESE
Cosmos 783 Rocket 4.4 04:05:05 68° WSW 04:05:30 72° WNW 04:10:47 10° NNE
MOS 1 Rocket 3.6 04:03:42 10° N 04:07:19 47° NW 04:07:19 47° NW
Cosmos 1300 3.0 04:12:33 62° ESE 04:12:40 62° E 04:16:27 10° NNE
SL-16 R/B 3.0 04:15:37 38° W 04:15:37 38° W 04:21:10 10° NNW
Cosmos 1125 Rocket 4.2 04:10:33 10° NNW 04:14:14 36° WNW 04:14:14 36° WNW
BREEZE M DEB (TANK) 4.2 04:17:34 22° ENE 04:17:34 22° ENE 04:18:52 10° E
Sich 1 2.9 04:12:34 10° N 04:16:58 87° E 04:17:46 60° SSE
Resurs 1-4 Rocket 2.8 04:14:26 10° N 04:19:10 35° WNW 04:19:26 35° WNW
Cosmos 2123 Rocket 4.3 04:14:20 10° NNW 04:20:10 42° W 04:20:53 41° WSW
CZ-2D R/B 3.2 04:17:18 10° N 04:21:16 71° WNW 04:21:16 71° WNW
Cosmos 1656 Rocket 4.2 04:19:18 10° NW 04:24:03 39° W 04:24:03 39° W
Cosmos 1315 Rocket 2.6 04:24:10 10° NNW 04:28:12 75° W 04:28:33 68° SW
CZ-2D R/B 3.1 04:25:05 10° N 04:29:39 29° WNW 04:30:15 28° W
Cosmos 1459 Rocket 4.0 04:25:34 20° S 04:29:54 76° E 04:35:59 10° N
Cosmos 1538 Rocket 4.0 04:30:39 36° SSW 04:32:57 89° ESE 04:38:22 10° NNE
Cosmos 1470 Rocket 4.3 04:28:45 10° N 04:32:58 50° E 04:37:10 10° SSE
Cosmos 2228 Rocket 3.3 04:31:12 29° S 04:33:25 70° E 04:37:52 10° NNE
USA 229 DEB 3.8 04:30:53 10° NW 04:37:53 56° WSW 04:45:01 10° SSE
USA 229 3.8 04:31:00 10° NW 04:38:00 57° WSW 04:45:07 10° SSE
Cosmos 2082 Rocket 3.5 04:34:47 10° SSE 04:39:49 35° ESE 04:44:52 10° NE
Cosmos 1515 Rocket 3.8 04:37:53 23° S 04:40:31 69° E 04:44:56 10° NNE
PSLV R/B 3.5 04:42:54 45° NW 04:43:35 58° N 04:46:47 10° E
Cosmos 1633 Rocket 3.1 04:41:05 10° NNW 04:45:21 54° W 04:46:50 35° SSW
USA 161 3.6 04:47:07 13° N 04:47:07 13° N 04:47:25 10° N
Tiangong 2 2.4 04:46:42 28° SSE 04:47:00 28° SSE 04:49:49 10° E
Cosmos 292 Rocket 4.4 04:46:24 33° W 04:47:36 38° WNW 04:52:05 10° N
PSLV R/B 4.4 04:43:57 10° NNE 04:48:04 61° E 04:51:13 16° S
Cosmos 2061 Rocket 4.0 04:43:46 15° S 04:49:15 86° W 04:55:43 10° N
ARIANE 5 R/B 3.9 04:47:32 10° NNW 04:51:24 21° WNW 04:52:31 20° W
Lacrosse 5 3.6 04:46:53 10° NNW 04:51:30 34° NE 04:56:07 10° ESE
OE (NEXTSAT) 4.5 04:51:24 45° SSW 04:52:18 67° SSE 04:55:51 10° ENE
CZ-4B R/B 3.4 04:52:40 10° NNE 04:57:09 70° ESE 05:01:30 11° S
CZ-4B R/B 4.0 04:53:00 10° NNE 04:58:19 49° E 05:03:29 10° S
UNKNOWN OBJECT B 4.3 04:56:23 10° NNW 04:59:32 22° WNW 05:00:00 21° W
Cosmos 1680 Rocket 4.2 04:55:50 10° S 05:00:57 53° ESE 05:06:06 10° NNE
Cosmos 1726 3.8 05:03:54 19° WNW 05:03:54 19° WNW 05:06:27 10° NNW
Cosmos 1328 Rocket 4.0 05:05:17 26° SW 05:07:08 40° WNW 05:11:14 10° N
Cosmos 2369 3.9 05:02:27 10° NNW 05:08:07 74° ENE 05:13:45 10° SSE
SL-27 R/B 4.1 05:08:12 18° WNW 05:08:29 18° WNW 05:10:57 10° NNW
Cosmos 2016 Rocket 3.9 05:03:13 10° SSW 05:09:20 75° W 05:15:26 10° N
ADEOS II 2.1 05:04:49 10° N 05:10:03 69° WNW 05:14:51 12° SSW
Meteor 1-27 4.2 05:05:00 10° S 05:10:41 86° W 05:16:20 10° N
Cosmos 1892 2.7 05:07:24 10° N 05:11:16 85° E 05:15:06 10° S
USA 234 4.2 05:05:10 10° ENE 05:11:21 43° SE 05:17:29 10° SSW
NOSS 3-1 (C) 4.1 05:05:11 10° NW 05:12:52 69° WSW 05:21:17 10° SSE
MOS 1-B 4.5 05:07:51 10° N 05:13:33 57° WNW 05:18:38 13° SSW
Hubble Space Telescope 2.5 05:12:56 15° SSW 05:14:20 18° S 05:17:11 10° SE
Shenzhou-11 Module 2.0 05:14:51 28° SW 05:16:17 70° SSE 05:19:22 10° ENE
In-Cosmos 22 Rocket 4.4 05:12:28 10° NNW 05:17:34 45° W 05:22:36 10° SSW
PSLV R/B 3.5 05:13:39 10° N 05:18:00 75° WNW 05:22:16 10° SSW
BREEZE-M DEB (TANK) 3.0 05:20:14 21° SW 05:20:15 21° SW 05:22:54 10° SSE
Cosmos 1725 Rocket 4.0 05:15:46 10° S 05:21:57 85° W 05:28:10 10° N
Cosmos 1656 4.0 05:17:02 10° NNW 05:22:46 75° ENE 05:28:26 10° SSE
Cosmos 1802 Rocket 4.3 05:17:48 11° SSW 05:23:27 48° WNW 05:29:31 10° N
Cosmos 1825 4.3 05:23:09 10° NNE 05:26:33 30° ENE 05:29:55 10° SE
Cosmos 1933 Rocket 4.0 05:22:55 10° NNW 05:27:08 43° W 05:31:20 10° SSW
COSMOS 2487 2.5 05:28:40 11° SSW 05:31:57 63° WNW 05:35:29 10° N
Okean-O 4.5 05:28:20 10° NNE 05:32:20 32° E 05:36:18 10° SSE
Abrixas 1.9 05:30:01 10° WNW 05:32:38 77° SW 05:35:15 10° SE
Okean O Rocket 1.8 05:31:43 10° N 05:36:03 53° WNW 05:40:18 10° SSW
Cosmos 1833 Rocket 2.7 05:33:10 10° SSW 05:38:48 75° WNW 05:44:28 10° NNE
Cosmos 1151 Rocket 4.0 05:38:20 10° SW 05:42:01 29° WNW 05:45:47 10° NNW
Cosmos 1408 3.5 05:39:26 10° N 05:42:59 51° E 05:46:30 10° SSE
Tsikada Rocket 4.0 05:38:12 10° NNW 05:44:28 68° W 05:50:47 10° S
Cosmos 1707 Rocket 3.9 05:40:25 10° S 05:44:49 71° E 05:49:12 10° NNE
Cosmos 1980 Rocket 3.1 05:48:49 10° NNW 05:54:19 55° ENE 05:59:49 10° SE
Cosmos 2278 4.0 05:52:30 10° NW 05:57:47 42° WSW 06:03:04 10° S
ASTEX 1 4.2 05:56:13 10° NNE 06:01:03 56° E 06:05:49 10° S
